IK1AMC-3 Weather Reports


time (UTC)temp
F
wind
direction
speed
knots
gust
knots
rain 1hr
in
rain 24hr
in
rain mn
in
humidity
%
barometer
mb
20260507013838 59 0.0 0.0 0.00 0.00 0.00 81 1010.2
20260507011836 60 0.0 0.0 0.00 0.00 0.00 81 1010.1
20260507005835 60 0.0 0.0 0.00 0.00 0.00 82 1010.4
20260507003834 60 0.0 0.0 0.00 0.00 0.00 81 1010.4
20260507001832 61 0.0 0.0 0.00 0.00 0.00 81 1010.2
20260506235831 61 0.0 0.0 0.00 0.00 0.00 80 1010.2
20260506233830 61 0.0 0.0 0.00 0.00 0.00 81 1009.9
20260506231829 62 0.0 0.0 0.00 0.00 0.00 78 1010.1
20260506225827 63 0.0 0.0 0.00 0.00 0.00 75 1010.0
20260506223826 62 0.0 0.0 0.00 0.00 0.00 78 1009.9
20260506221825 63 0.0 0.0 0.00 0.00 0.00 76 1009.9
20260506215823 62 0.0 0.0 0.00 0.00 0.00 77 1009.9
20260506213822 62 0.0 0.0 0.00 0.00 0.00 77 1009.9
20260506211821 62 0.0 0.0 0.00 0.00 0.00 78 1009.8
20260506205820 63 0.0 0.0 0.00 0.00 0.00 76 1009.6
20260506203818 62 0.0 0.0 0.00 0.00 0.00 76 1009.6
20260506201817 63 0.0 0.0 0.00 0.00 0.00 74 1009.4
20260506195816 64 0.0 0.0 0.00 0.00 0.00 72 1009.2
20260506193814 63 0.0 0.0 0.00 0.00 0.00 74 1008.7
20260506191813 64 0.0 0.0 0.00 0.00 0.00 71 1008.4
20260506185812 64 0.0 0.0 0.00 0.00 0.00 70 1008.2
20260506183810 64 0.0 0.0 0.00 0.00 0.00 69 1007.8
20260506181809 64 0.0 0.0 0.00 0.00 0.00 71 1007.5
20260506175808 64 0.0 0.0 0.00 0.00 0.00 71 1007.1
20260506173806 65 0.0 0.0 0.00 0.00 0.00 66 1007.0
20260506171805 66 0.0 0.0 0.00 0.00 0.00 60 1006.9
20260506165804 66 0.0 0.0 0.00 0.00 0.00 58 1006.9
20260506163802 66 0.0 0.0 0.00 0.00 0.00 58 1006.6
20260506161801 67 0.0 0.0 0.00 0.00 0.00 63 1006.7
20260506155800 67 0.0 0.0 0.00 0.00 0.00 62 1006.8
20260506153758 68 0.0 0.0 0.00 0.00 0.00 63 1006.5
20260506151757 68 0.0 0.0 0.00 0.00 0.00 62 1006.6
20260506145756 68 0.0 0.0 0.00 0.00 0.00 61 1006.6
20260506143754 68 0.0 0.0 0.00 0.00 0.00 58 1006.6
20260506141753 69 0.0 0.0 0.00 0.00 0.00 59 1006.6
20260506135752 69 0.0 0.0 0.00 0.00 0.00 56 1006.8
20260506133750 69 0.0 0.0 0.00 0.00 0.00 56 1007.0
20260506131749 70 0.0 0.0 0.00 0.00 0.00 55 1007.1
20260506125748 70 0.0 0.0 0.00 0.00 0.00 58 1007.4
20260506123746 71 0.0 0.0 0.00 0.00 0.00 55 1007.2
20260506121745 69 0.0 0.0 0.00 0.00 0.00 57 1007.2
20260506115744 70 0.0 0.0 0.00 0.00 0.00 56 1007.3
20260506113742 68 0.0 0.0 0.00 0.00 0.00 60 1007.4
20260506111741 69 0.0 0.0 0.00 0.00 0.00 61 1007.6
20260506105739 69 0.0 0.0 0.00 0.00 0.00 64 1007.8
20260506103738 68 0.0 0.0 0.00 0.00 0.00 67 1007.8
20260506101737 66 0.0 0.0 0.00 0.00 0.00 69 1007.9
20260506095735 66 0.0 0.0 0.00 0.00 0.00 69 1007.8
20260506093734 66 0.0 0.0 0.00 0.00 0.00 69 1007.7
20260506091733 66 0.0 0.0 0.00 0.00 0.00 66 1007.6
20260506085732 65 0.0 0.0 0.00 0.00 0.00 67 1007.5
20260506083730 66 0.0 0.0 0.00 0.00 0.00 67 1007.4
20260506081729 64 0.0 0.0 0.00 0.00 0.00 71 1007.4
20260506071725 63 0.0 0.0 0.00 0.00 0.00 76 1007.3
20260506061721 59 0.0 0.0 0.00 0.00 0.00 86 1006.5
20260506043715 59 0.0 0.0 0.00 0.00 0.00 86 1007.1
20260506041713 59 0.0 0.0 0.00 0.00 0.00 85 1007.4
20260506035712 59 0.0 0.0 0.00 0.00 0.00 80 1007.9
20260506033711 60 0.0 0.0 0.00 0.00 0.00 81 1008.2
20260506031709 60 0.0 0.0 0.00 0.00 0.00 81 1008.2
20260506025708 60 0.0 0.0 0.00 0.00 0.00 79 1008.0
20260506023707 60 0.0 0.0 0.00 0.00 0.00 80 1008.0
20260506021706 60 0.0 0.0 0.00 0.00 0.00 79 1008.2
20260506015704 60 0.0 0.0 0.00 0.00 0.00 81 1008.6